Date String (YYYY-MM-DD hh:mm:ss) UTC,Instrument flags,Ambient pressure (hPa),Sample flow (lpm),Bypass flow (lpm),Sample temperature (°C),Ambient temperature (°C),ASC tube jacket temperature (°C),LED temperature (°C),Box temperature (°C),Sample RH (%),Span deviation,Mass concentration (μg/m³),Mass concentration (μg/m³),Mass concentration (μg/m³)
DateTimeUTC,F1_M11,P_M11,Q1_M11,Q2_M11,T1_M11,T2_M11,T3_M11,T4_M11,T5_M11,U1_M11,ZSPAN_M11,X2_M11,X0_M11,X1_M11
2022-10-03 09:00:00,,0829.2,4.98,0.00,29.9,28.5,00.0,38.6,31.7,22.9,0000.0,0003.92,0007.56,0003.64
2022-10-03 09:01:00,,0829.2,5.01,0.00,29.9,28.5,00.0,38.6,31.7,22.9,0000.0,0003.88,0007.42,0003.64
2022-10-03 09:02:00,,0829.2,4.98,0.00,29.9,28.4,00.0,38.6,31.7,22.9,0000.0,0003.89,0007.36,0003.65
2022-10-03 09:03:00,,0829.2,5.00,0.00,29.9,28.4,00.0,38.6,31.7,23.0,0000.0,0003.92,0006.91,0003.66
2022-10-03 09:04:00,,0829.2,5.00,0.00,29.9,28.5,00.0,38.6,31.7,22.9,0000.0,0003.92,0006.92,0003.66
2022-10-03 09:05:00,,0829.1,4.99,0.00,29.9,28.5,00.0,38.6,31.7,22.9,0000.0,0003.91,0006.88,0003.65
2022-10-03 09:06:00,,0829.1,5.01,0.00,29.9,28.5,00.0,38.6,31.7,22.9,0000.0,0003.89,0006.30,0003.65
2022-10-03 09:07:00,,0829.1,4.99,0.00,29.9,28.5,00.0,38.6,31.7,22.9,0000.0,0003.89,0006.18,0003.66
2022-10-03 09:08:00,,0829.1,5.00,0.00,29.9,28.5,00.0,38.6,31.7,22.8,0000.0,0003.90,0006.21,0003.68
2022-10-03 09:09:00,,0829.1,5.01,0.00,29.9,28.5,00.0,38.6,31.7,22.8,0000.0,0003.89,0006.07,0003.68
2022-10-03 09:10:00,,0829.1,5.01,0.00,29.9,28.5,00.0,38.7,31.7,22.7,0000.0,0003.88,0006.24,0003.67
2022-10-03 09:11:00,,0829.1,5.00,0.00,29.9,28.5,00.0,38.7,31.8,22.7,0000.0,0003.89,0006.32,0003.66
2022-10-03 09:12:00,,0829.1,4.99,0.00,29.9,28.5,00.0,38.7,31.7,22.7,0000.0,0003.92,0006.55,0003.66
2022-10-03 09:13:00,,0829.1,5.01,0.00,29.9,28.5,00.0,38.7,31.7,22.6,0000.0,0003.92,0006.56,0003.66
2022-10-03 09:14:00,,0829.0,4.99,0.00,29.9,28.5,00.0,38.7,31.7,22.5,0000.0,0003.90,0006.48,0003.65
2022-10-03 09:15:00,,0829.1,5.01,0.00,29.9,28.5,00.0,38.7,31.7,22.4,0000.0,0003.92,0006.59,0003.65
2022-10-03 09:16:00,,0829.1,5.01,0.00,29.9,28.5,00.0,38.7,31.7,22.4,0000.0,0003.94,0006.78,0003.65
2022-10-03 09:17:00,,0829.0,5.00,0.00,29.9,28.5,00.0,38.7,31.7,22.3,0000.0,0003.95,0006.81,0003.64
2022-10-03 09:18:00,,0829.0,5.00,0.00,29.9,28.6,00.0,38.7,31.7,22.3,0000.0,0003.95,0006.79,0003.63
2022-10-03 09:19:00,,0829.0,4.99,0.00,30.0,28.6,00.0,38.7,31.8,22.3,0000.0,0003.95,0006.79,0003.62
2022-10-03 09:20:00,,0829.1,5.01,0.00,30.0,28.6,00.0,38.7,31.8,22.2,0000.0,0003.94,0006.74,0003.61
2022-10-03 09:21:00,,0829.1,4.99,0.00,30.0,28.6,00.0,38.7,31.8,22.2,0000.0,0003.93,0006.41,0003.61
2022-10-03 09:22:00,,0829.1,5.00,0.00,30.0,28.6,00.0,38.7,31.8,22.1,0000.0,0003.92,0006.20,0003.61
2022-10-03 09:23:00,,0829.0,5.01,0.00,30.0,28.5,00.0,38.7,31.8,21.8,0000.0,0003.90,0005.99,0003.60
2022-10-03 09:24:00,,0829.0,5.01,0.00,30.0,28.5,00.0,38.7,31.7,21.8,0000.0,0003.89,0005.97,0003.60
2022-10-03 09:25:00,,0829.1,4.99,0.00,30.0,28.5,00.0,38.7,31.8,21.7,0000.0,0003.85,0005.82,0003.58
2022-10-03 09:26:00,,0829.1,5.01,0.00,30.0,28.5,00.0,38.7,31.8,21.6,0000.0,0003.81,0005.68,0003.57
2022-10-03 09:27:00,,0829.0,5.00,0.00,30.0,28.4,00.0,38.7,31.8,21.7,0000.0,0003.78,0005.53,0003.55
2022-10-03 09:28:00,,0829.1,4.99,0.00,30.0,28.4,00.0,38.7,31.7,21.7,0000.0,0003.78,0005.64,0003.54
2022-10-03 09:29:00,,0829.1,5.00,0.00,29.9,28.4,00.0,38.7,31.8,21.6,0000.0,0003.77,0005.68,0003.54
2022-10-03 09:30:00,,0829.1,5.00,0.00,29.9,28.4,00.0,38.7,31.8,21.6,0000.0,0003.75,0005.64,0003.53
2022-10-03 09:31:00,,0829.1,5.00,0.00,29.9,28.4,00.0,38.7,31.7,21.7,0000.0,0003.73,0005.59,0003.51
2022-10-03 09:32:00,,0829.0,4.99,0.00,29.9,28.3,00.0,38.7,31.7,21.5,0000.0,0003.72,0005.45,0003.50
2022-10-03 09:33:00,,0829.1,5.01,0.00,29.9,28.3,00.0,38.7,31.7,21.5,0000.0,0003.72,0005.41,0003.49
2022-10-03 09:34:00,,0829.1,4.98,0.00,29.9,28.3,00.0,38.7,31.7,21.5,0000.0,0003.71,0005.36,0003.49
2022-10-03 09:35:00,,0829.1,5.00,0.00,29.9,28.3,00.0,38.7,31.7,21.6,0000.0,0003.70,0005.28,0003.49
2022-10-03 09:36:00,,0829.1,5.01,0.00,29.9,28.3,00.0,38.7,31.7,21.6,0000.0,0003.71,0005.31,0003.49
2022-10-03 09:37:00,,0829.1,4.99,0.00,29.9,28.3,00.0,38.7,31.7,21.6,0000.0,0003.74,0005.46,0003.51
2022-10-03 09:38:00,,0829.1,5.00,0.00,29.9,28.4,00.0,38.7,31.7,21.6,0000.0,0003.77,0005.57,0003.53
2022-10-03 09:39:00,,0829.1,5.01,0.00,29.9,28.4,00.0,38.7,31.7,21.6,0000.0,0003.80,0005.59,0003.56
2022-10-03 09:40:00,,0829.1,4.99,0.00,29.9,28.4,00.0,38.7,31.7,21.6,0000.0,0003.81,0005.59,0003.57
2022-10-03 09:41:00,,0829.1,5.00,0.00,29.9,28.4,00.0,38.7,31.7,21.7,0000.0,0003.84,0005.71,0003.60
2022-10-03 09:42:00,,0829.1,5.01,0.00,29.9,28.4,00.0,38.7,31.7,21.7,0000.0,0003.87,0005.80,0003.63
2022-10-03 09:43:00,,0829.2,4.99,0.00,29.9,28.5,00.0,38.6,31.7,21.7,0000.0,0003.92,0005.95,0003.66
2022-10-03 09:44:00,,0829.2,5.01,0.00,29.9,28.5,00.0,38.6,31.7,21.7,0000.0,0003.96,0006.10,0003.69
2022-10-03 09:45:00,,0829.2,4.99,0.00,29.9,28.5,00.0,38.7,31.7,21.9,0000.0,0003.99,0006.19,0003.71
2022-10-03 09:46:00,,0829.2,4.99,0.00,29.9,28.5,00.0,38.7,31.7,22.0,0000.0,0004.02,0006.26,0003.72
2022-10-03 09:47:00,,0829.2,5.01,0.00,29.9,28.5,00.0,38.7,31.8,21.9,0000.0,0004.01,0006.23,0003.73
2022-10-03 09:48:00,,0829.2,4.99,0.00,29.9,28.5,00.0,38.7,31.8,21.9,0000.0,0004.02,0006.16,0003.74
2022-10-03 09:49:00,,0829.1,5.01,0.00,29.9,28.6,00.0,38.7,31.7,22.0,0000.0,0004.01,0006.00,0003.74
2022-10-03 09:50:00,,0829.1,5.01,0.00,29.9,28.6,00.0,38.7,31.7,22.0,0000.0,0004.01,0006.12,0003.76
2022-10-03 09:51:00,,0829.1,4.99,0.00,29.9,28.6,00.0,38.7,31.8,21.8,0000.0,0004.03,0006.81,0003.78
2022-10-03 09:52:00,,0829.2,5.01,0.00,29.9,28.6,00.0,38.7,31.8,21.7,0000.0,0004.04,0006.79,0003.79
2022-10-03 09:53:00,,0829.1,4.99,0.00,30.0,28.6,00.0,38.7,31.8,21.7,0000.0,0004.05,0006.81,0003.80
2022-10-03 09:54:00,,0829.1,5.01,0.00,30.0,28.6,00.0,38.7,31.8,21.6,0000.0,0004.07,0006.94,0003.82
2022-10-03 09:55:00,,0829.2,4.99,0.00,30.0,28.6,00.0,38.7,31.8,21.6,0000.0,0004.05,0006.81,0003.83
2022-10-03 09:56:00,,0829.2,5.00,0.00,30.0,28.6,00.0,38.7,31.8,21.6,0000.0,0004.06,0006.75,0003.85
2022-10-03 09:57:00,,0829.2,5.01,0.00,30.0,28.6,00.0,38.7,31.8,21.5,0000.0,0004.09,0006.85,0003.88
2022-10-03 09:58:00,,0829.2,4.99,0.00,30.0,28.5,00.0,38.7,31.8,21.4,0000.0,0004.13,0007.01,0003.91
2022-10-03 09:59:00,,0829.2,5.00,0.00,30.0,28.5,00.0,38.7,31.8,21.4,0000.0,0004.14,0007.14,0003.92
